Weather History for Prince Rupert, BC

Change the Weather History Date:

Tuesday, October 30, 2012

  Actual Average Record
Temperature  
Mean Temperature 36 °F -  
Max Temperature 41 °F 46 °F 53 °F (2014)
Min Temperature 30 °F 36 °F 28 °F (1996)
Degree Days  
Heating Degree Days 30    
Moisture  
Dew Point 29 °F    
Average Humidity 87    
Maximum Humidity 100    
Minimum Humidity 61    
Precipitation  
Precipitation 0.00 in - - ()
Sea Level Pressure  
Sea Level Pressure 29.99 in    
Wind  
Wind Speed 5 mph ()    
Max Wind Speed 8 mph    
Max Gust Speed -    
Visibility 9.0 miles    
Events Snow    
Averages and records for this station are not official NWS values.
T = Trace of Precipitation, MM = Missing Value Source: Averaged Metar Reports

Daily Weather History Graph

Daily Weather History Graph

Search for Another Location

Airport:

Trip Planner

Search our weather history database for the weather conditions in past years. The results will help you decide how hot, cold, wet, or windy it might be!

Date:

Astronomy

Oct. 30, 2012 Rise Set
Actual Time 8:40 AM PDT 6:09 PM PDT
Civil Twilight 8:02 AM PDT 6:46 PM PDT
Nautical Twilight 7:20 AM PDT 7:28 PM PDT
Astronomical Twilight 6:39 AM PDT 8:10 PM PDT
Moon 6:28 PM PDT (10/30) 9:46 AM PDT (10/30)
Length of Visible Light 10h 43m
Length of Day
9h 28m
Full, 99% of the Moon is Illuminated
Oct 30
Full
Nov 6
Last Quarter
Nov 13
New
Nov 20
First Quarter
Nov 28
Full

Hourly Weather History & Observations

Time (PDT) Temp. Windchill Dew Point Humidity Pressure Visibility Wind Dir Wind Speed Gust Speed Precip Events Conditions
12:00 AM 30.2 °F 24.3 °F 30.2 °F 100% 29.95 in 9.0 mi ENE 5.8 mph - N/A   Clear
1:00 AM 32.0 °F 25.6 °F 30.2 °F 93% 29.97 in 9.0 mi NE 6.9 mph - N/A   Mostly Cloudy
2:00 AM 30.2 °F 23.4 °F 30.2 °F 100% 29.99 in 9.0 mi East 6.9 mph - N/A   Partly Cloudy
3:00 AM 30.2 °F 24.3 °F 30.2 °F 100% 30.00 in 9.0 mi ENE 5.8 mph - N/A   Clear
4:00 AM 30.2 °F 23.4 °F 30.2 °F 100% 30.01 in 9.0 mi East 6.9 mph - N/A   Clear
5:00 AM 30.2 °F 24.3 °F 30.2 °F 100% 30.02 in 9.0 mi ENE 5.8 mph - N/A   Clear
6:00 AM 30.2 °F 24.3 °F 30.2 °F 100% 30.03 in 9.0 mi ENE 5.8 mph - N/A   Clear
7:00 AM 30.2 °F 23.4 °F 30.2 °F 100% 30.03 in 9.0 mi East 6.9 mph - N/A   Clear
8:00 AM 30.2 °F 23.4 °F 28.4 °F 93% 30.03 in 9.0 mi ENE 6.9 mph - N/A   Clear
8:52 AM 30.2 °F 23.4 °F 28.4 °F 93% 30.04 in 9.0 mi NE 6.9 mph - N/A Snow Light Snow
9:00 AM 30.2 °F 23.4 °F 28.4 °F 93% 30.04 in 9.0 mi ENE 6.9 mph - N/A Snow Light Snow
9:01 AM 30.2 °F 24.3 °F 28.4 °F 93% 30.04 in 9.0 mi ENE 5.8 mph - N/A   Clear
9:10 AM 30.2 °F 23.4 °F 28.4 °F 93% 30.04 in 9.0 mi ENE 6.9 mph - N/A Snow Light Snow
9:29 AM 32.0 °F 24.8 °F 30.2 °F 93% 30.04 in 9.0 mi ENE 8.1 mph - N/A   Clear
9:40 AM 32.0 °F 25.6 °F 30.2 °F 93% 30.04 in 9.0 mi NE 6.9 mph - N/A Snow Light Snow
9:56 AM 32.0 °F 25.6 °F 30.2 °F 93% 30.04 in 9.0 mi ENE 6.9 mph - N/A   Clear
10:00 AM 32.0 °F 25.6 °F 30.2 °F 93% 30.04 in 9.0 mi ENE 6.9 mph - N/A   Clear
10:15 AM 33.8 °F 28.6 °F 30.2 °F 87% 30.04 in 9.0 mi ENE 5.8 mph - N/A Snow Light Snow
10:26 AM 35.6 °F 30.7 °F 30.2 °F 81% 30.04 in 9.0 mi ENE 5.8 mph - N/A Snow Light Snow
10:28 AM 35.6 °F 30.7 °F 30.2 °F 81% 30.04 in 9.0 mi ENE 5.8 mph - N/A   Unknown
10:49 AM 33.8 °F 28.6 °F 30.2 °F 87% 30.03 in 9.0 mi ENE 5.8 mph - N/A   Unknown
11:00 AM 33.8 °F 28.6 °F 30.2 °F 87% 30.03 in 9.0 mi NE 5.8 mph - N/A   Clear
12:00 PM 37.4 °F 33.8 °F 28.4 °F 70% 30.01 in 9.0 mi NE 4.6 mph - N/A   Clear
1:00 PM 39.2 °F - 26.6 °F 61% 30.00 in 9.0 mi Variable 2.3 mph - N/A   Clear
2:00 PM 39.2 °F 35.9 °F 28.4 °F 65% 29.98 in 9.0 mi NNW 4.6 mph - N/A   Clear
3:00 PM 41.0 °F 39.0 °F 28.4 °F 61% 29.97 in 9.0 mi WSW 3.5 mph - N/A   Clear
4:00 PM 39.2 °F 35.0 °F 28.4 °F 65% 29.96 in 9.0 mi South 5.8 mph - N/A   Clear
5:00 PM 39.2 °F - 26.6 °F 61% 29.95 in 9.0 mi Variable 2.3 mph - N/A   Clear
6:00 PM 35.6 °F - 30.2 °F 81% 29.94 in 9.0 mi NNW 2.3 mph - N/A   Clear
7:00 PM 32.0 °F 27.5 °F 28.4 °F 87% 29.92 in 9.0 mi NNE 4.6 mph - N/A   Clear
8:00 PM 32.0 °F 25.6 °F 28.4 °F 87% 29.90 in 9.0 mi East 6.9 mph - N/A   Clear
9:00 PM 32.0 °F 25.6 °F 30.2 °F 93% 29.88 in 9.0 mi ENE 6.9 mph - N/A   Clear
10:00 PM 32.0 °F 24.8 °F 30.2 °F 93% 29.85 in 9.0 mi East 8.1 mph - N/A   Clear
11:00 PM 30.2 °F 24.3 °F 28.4 °F 93% 29.83 in 9.0 mi ENE 5.8 mph - N/A   Clear